Skip Page Navigation
NASA JPL Caltech
NASA Logo - Jet Propulsion Laboratory + View the NASA Portal
+ Center for Near-Earth Object Studies
JPL Home Earth Solar System Stars & Galaxies Technology
JPL Solar System Dynamics
BODIES ORBITS EPHEMERIDES TOOLS PHYSICAL DATA DISCOVERY FAQ SITE MAP
IMPORTANT: The SSD Announcement email list is now available. Major changes are coming in the near future, including possible hostname and/or URL changes. To be notified of such changes, subscribe to this email list.

Please visit this page for more details.


JPL Small-Body Database Browser
Search: [ help ]  
183714 (2003 YO70)
Classification: Main-belt Asteroid          SPK-ID: 2183714
Ephemeris | Orbit Diagram | Orbital Elements | Mission Design | Physical Parameters | Discovery Circumstances ]

[ show orbit diagram ]
Orbital Elements at Epoch 2458600.5 (2019-Apr-27.0) TDB
Reference: JPL 12 (heliocentric ecliptic J2000)
 Element Value Uncertainty (1-sigma)   Units 
e .2303142078819612 4.7546e-08  
a 2.262616309396233 1.0413e-08 au
q 1.741503626356834 1.0729e-07 au
i 3.172516702748577 4.996e-06 deg
node 149.5715334669251 9.9859e-05 deg
peri 222.2120747557948 0.0001006 deg
M 245.4106211173318 1.342e-05 deg
tp 2458996.191445606764
(2020-May-26.69144561)
4.8266e-05 TDB
period 1243.124989483475
3.40
8.5815e-06
2.349e-08
d
yr
n .2895927626308775 1.9991e-09 deg/d
Q 2.783728992435633 1.2811e-08 au
  Orbit Determination Parameters
   # obs. used (total)      356  
   data-arc span      9208 days (25.21 yr)  
   first obs. used      1994-02-13  
   last obs. used      2019-05-01  
   planetary ephem.      DE431  
   SB-pert. ephem.      SB431-N16  
   condition code      0  
   norm. resid. RMS      .53635  
   source      ORB  
   producer      Otto Matic  
   solution date      2019-Jul-13 18:08:44  

Additional Information
 Earth MOID = .742188 au 
 Jupiter MOID = 2.67645 au 
 T_jup = 3.581 
[ show covariance matrix ]

Ephemeris | Orbit Diagram | Orbital Elements | Mission Design | Physical Parameters | Discovery Circumstances ]

Physical Parameter Table
Parameter Symbol Value Units Sigma Reference Notes
absolute magnitude H 16.8   n/a MPO436907  

183714 (2003 YO70)          Discovered 2003-Dec-19 by LINEAR at Socorro
Reference: 20080420/Numbers.arcLast Updated: 2008-04-23
Ephemeris | Orbit Diagram | Orbital Elements | Mission Design | Physical Parameters | Discovery Circumstances ]
ABOUT SSD CREDITS/AWARDS PRIVACY/COPYRIGHT GLOSSARY LINKS
FirstGov
(server date/time)  
NASA Home Page
Site Manager:   Ryan S. Park
Webmaster  Alan B. Chamberlin